[[{"header":{"parameterUnit":"m.s-1","parameterCategory":1,"la1":30.2991,"la2":30.254,"lo1":-89.0895,"lo2":-89.0444,"dy":0.0017,"dx":0.0017,"nx":28,"ny":28,"refTime":"2024-12-22T03:00:00:Z","depth":0,"parameterNumber":2,"parameterNumberName":"U-component_of_WINDS"},"data":[0,0,0,0,0,0,0,0,0,0,0,0,0,0,0,0,0,0,0,0,0,0,0,0,0,0,0,0,0,0,0,0,0,0,0,0,0,0,0,0,0,0,0,0,0,0,0,0,0,0,0,0,0,0,0,0,0,0,-3.5396,-3.5396,0,-3.5417,-3.5417,-3.5418,-3.5255,-3.5251,-3.5246,-3.5242,-3.5266,-3.5271,-3.5276,0,0,0,0,0,0,0,0,0,0,0,0,0,-3.5216,-3.5221,-3.5396,-3.5396,-3.5396,-3.5417,-3.5417,-3.5418,-3.5256,-3.525,-3.5245,-3.524,-3.5265,-3.5271,-3.5276,0,0,0,0,0,0,0,0,0,0,0,0,0,-3.5272,-3.5222,-3.5396,-3.5318,-3.5311,-3.5417,-3.5417,-3.5418,-3.5257,-3.525,-3.5243,-3.5237,-3.5263,-3.527,-3.5277,-3.5459,0,0,-3.53,-3.5303,0,0,0,0,0,0,0,0,-3.5269,-3.5279,-3.5329,-3.5324,-3.5316,-3.5326,-3.5363,-3.5432,-3.5259,-3.5278,-3.5242,-3.5234,-3.5292,-3.5297,-3.5316,-3.5461,-3.5462,-3.53,-3.5305,-3.5308,-3.531,0,0,0,0,0,0,0,-3.5265,-3.5277,-3.5404,-3.533,-3.5322,-3.5283,-3.5283,-3.5375,-3.5323,-3.5276,-3.5264,-3.5268,-3.5287,-3.5309,-3.5315,-3.5462,-3.53,-3.5307,-3.5311,-3.5314,-3.5757,-3.5764,0,0,0,0,0,0,-3.5272,-3.5275,-3.5404,-3.5405,-3.5275,-3.5291,-3.5292,-3.533,-3.5322,-3.5314,-3.5274,-3.5261,-3.53,-3.5307,-3.5315,-3.5527,-3.5308,-3.5315,-3.5319,-3.5749,-3.5758,-3.5766,0,0,0,0,0,0,-3.5268,-3.5285,-3.5403,-3.5337,-3.5349,-3.5302,-3.5346,-3.5334,-3.5356,-3.5321,-3.5311,-3.5306,-3.5295,-3.5305,-3.5424,-3.5526,-3.5318,-3.5325,-3.5741,-3.5752,-3.5762,-3.5954,0,0,0,0,0,0,-3.5264,-3.5285,-3.5353,-3.5339,-3.5353,-3.5512,-3.5352,-3.534,-3.5368,-3.5351,-3.5348,-3.5341,-3.529,-3.5414,-3.5432,-3.5532,-3.5331,-3.5731,-3.5746,-3.5759,-3.5938,-3.597,-3.5997,0,0,0,0,0,-3.5258,-3.5407,-3.5357,-3.5374,-3.5437,-3.5518,-3.5525,-3.5463,-3.5377,-3.5446,-3.5423,-3.5341,-3.5512,-3.5428,-3.5446,-3.5551,-3.5725,-3.5742,-3.5758,-3.5925,-3.5964,-3.5997,0,0,0,0,0,0,-3.5434,-3.5403,-3.5348,-3.5497,-3.5511,-3.549,-3.5574,-3.5507,-3.5546,-3.5528,-3.5451,-3.5451,-3.5584,-3.5579,-3.5486,-3.5726,-3.5603,-3.5625,-3.5724,-3.5761,-3.579,-3.5788,-3.5337,0,0,0,0,0,-3.549,-3.5558,-3.5527,-3.5661,-3.5671,-3.5622,-3.5655,-3.5606,-3.5618,-3.5623,-3.5609,-3.5625,-3.5681,-3.5721,-3.5772,-3.5937,-3.5934,-3.6018,-3.6047,-3.6071,-3.609,-3.6177,-3.6214,-3.5821,-3.582,-3.582,0,0,-3.5607,-3.5598,-3.5646,-3.5696,-3.5702,-3.5773,-3.5628,-3.5711,-3.5763,-3.5636,-3.5747,-3.5738,-3.575,-3.5893,-3.5955,-3.5893,-3.6198,-3.6093,-3.6112,-3.6118,-3.6198,-3.6235,-3.6268,-3.5832,-3.583,-3.5828,0,0,-3.5856,-3.5857,-3.5967,-3.5976,-3.5985,-3.5951,-3.5979,-3.5968,-3.5956,-3.6067,-3.5973,-3.6035,-3.6135,-3.6147,-3.6166,-3.642,-3.6346,-3.6439,-3.6593,-3.6678,-3.6709,-3.6736,-3.6826,-3.686,-3.6458,-3.6459,-3.6459,0,-3.6,-3.6103,-3.6034,-3.6122,-3.6147,-3.6034,-3.6146,-3.6158,-3.6184,-3.6204,-3.6134,-3.6257,-3.6257,-3.6401,-3.6463,-3.6483,-3.6511,-3.6439,-3.671,-3.6737,-3.6761,-3.6846,-3.688,-3.647,-3.6469,-3.6467,-3.6466,0,-3.6279,-3.6353,-3.6442,-3.6469,-3.6504,-3.6604,-3.655,-3.6594,-3.6542,-3.6516,-3.6631,-3.6627,-3.6674,-3.6705,-3.6656,-3.6843,-3.6803,-3.6724,-3.6598,-3.6811,-3.6889,-3.6921,-3.6486,-3.6482,-3.6479,-3.6476,0,0,-3.664,-3.6626,-3.666,-3.6671,-3.6673,-3.6729,-3.6824,-3.6869,-3.6909,-3.6931,-3.7009,-3.7096,-3.7021,-3.7044,-3.6995,-3.707,-3.7271,-3.698,-3.6979,-3.7034,-3.7476,-3.7535,-3.7574,-3.7221,-3.7227,-3.7232,-3.7474,0,-3.6882,-3.7042,-3.6982,-3.7148,-3.7214,-3.7109,-3.7191,-3.7202,-3.7181,-3.7235,-3.7211,-3.7274,-3.7171,-3.7184,-3.7253,-3.7232,-3.7358,-3.7213,-3.7293,-3.7297,-3.7293,-3.7615,-3.7679,-3.7907,-3.7505,-3.751,-3.7513,0,-3.7185,-3.7219,-3.7391,-3.7381,-3.7406,-3.7482,-3.7519,-3.7572,-3.7582,-3.7561,-3.7586,-3.7521,-3.7614,-3.749,-3.7617,-3.752,-3.7549,-3.7544,-3.7551,-3.7555,-3.7418,-3.7628,-3.7979,-3.8013,-3.7561,-3.7557,-3.7554,0,-3.743,-3.7518,-3.7632,-3.7644,-3.7636,-3.7691,-3.7691,-3.7694,-3.7725,-3.7758,-3.7777,-3.7821,-3.7845,-3.7881,-3.7829,-3.7744,-3.7964,-3.7836,-3.7949,-3.7951,-3.8,-3.7997,-3.836,-3.8021,-3.802,-3.8019,-3.8019,0,-3.7706,-3.7815,-3.7741,-3.7812,-3.7931,-3.7861,-3.7981,-3.7969,-3.7973,-3.8039,-3.7951,-3.8015,-3.7943,-3.8001,-3.7961,-3.8072,-3.8084,-3.807,-3.8058,-3.8077,-3.8079,-3.8095,-3.8077,-3.8028,-3.8026,-3.8025,-3.8023,0,-3.7999,-3.7954,-3.8071,-3.8053,-3.8051,-3.814,-3.8125,-3.8189,-3.8161,-3.8246,-3.8262,-3.8219,-3.8282,-3.8235,-3.8297,-3.8271,-3.8417,-3.8383,-3.8414,-3.8404,-3.852,-3.8509,-3.8905,-3.8953,-3.8584,-3.8587,-3.859,0,-3.8178,-3.8259,-3.825,-3.8287,-3.8292,-3.8354,-3.8385,-3.832,-3.8356,-3.8374,-3.8436,-3.8491,-3.8532,-3.8638,-3.8613,-3.8661,-3.8627,-3.8762,-3.8633,-3.865,-3.8628,-3.8623,-3.8631,-3.8788,-3.8792,-3.8796,-3.8799,0,-3.85,-3.8473,-3.8521,-3.8562,-3.8601,-3.863,-3.8652,-3.8688,-3.8622,-3.8667,-3.873,-3.8762,-3.8825,-3.8882,-3.892,-3.8919,-3.8849,-3.884,-3.8868,-3.8888,-3.8902,-3.8895,-3.8484,-3.8831,-3.8827,-3.8825,-3.8823,-3.8822,-3.874,-3.8807,-3.8811,-3.8867,-3.8876,-3.8899,-3.8958,-3.8938,-3.8989,-3.9035,-3.8994,-3.907,-3.9078,-3.9122,-3.913,-3.9189,-3.9133,-3.9175,-3.9185,-3.9196,-3.9212,-3.8894,-3.9196,-3.9195,-3.9194,-3.9193,-3.9193,0,-3.9056,-3.9053,-3.9106,-3.9139,-3.9183,-3.9112,-3.9133,-3.9175,-3.9242,-3.9255,-3.9297,-3.937,-3.9424,-3.9403,-3.9451,-3.9502,-3.9471,-3.9517,-3.9512,-3.9513,-3.926,-3.923,-3.9541,-3.9541,-3.9541,-3.9541,-3.9541,-3.9541,-3.9225,-3.9335,-3.9309,-3.9423,-3.9419,-3.9492,-3.951,-3.953,-3.954,-3.9625,-3.9669,-3.9655,-3.9654,-3.9701,-3.9748,-3.974,-3.9762,-3.982,-3.9801,-3.9565,-3.9531,-3.9498,-3.9469,-3.9825,-3.9826,-4.0048,-4.005,-4.0052]},{"header":{"parameterUnit":"m.s-1","parameterCategory":1,"la1":30.2991,"la2":30.254,"lo1":-89.0895,"lo2":-89.0444,"dy":0.0017,"dx":0.0017,"nx":28,"ny":28,"refTime":"2024-12-22T03:00:00:Z","depth":0,"parameterNumber":3,"parameterNumberName":"V-component_of_WINDS"},"data":[0,0,0,0,0,0,0,0,0,0,0,0,0,0,0,0,0,0,0,0,0,0,0,0,0,0,0,0,0,0,0,0,0,0,0,0,0,0,0,0,0,0,0,0,0,0,0,0,0,0,0,0,0,0,0,0,0,0,-1.391,-1.3911,0,-1.3972,-1.3972,-1.3973,-1.4037,-1.4038,-1.4039,-1.4039,-1.41,-1.4101,-1.4102,0,0,0,0,0,0,0,0,0,0,0,0,0,-1.3846,-1.3847,-1.391,-1.3911,-1.3912,-1.3971,-1.3972,-1.3973,-1.4037,-1.4038,-1.4039,-1.404,-1.41,-1.4101,-1.4102,0,0,0,0,0,0,0,0,0,0,0,0,0,-1.3887,-1.3847,-1.391,-1.3951,-1.3955,-1.3971,-1.3972,-1.3973,-1.4036,-1.4038,-1.4039,-1.404,-1.41,-1.4101,-1.4102,-1.4083,0,0,-1.4106,-1.4106,0,0,0,0,0,0,0,0,-1.3885,-1.3889,-1.3944,-1.3948,-1.3953,-1.3998,-1.3972,-1.401,-1.4036,-1.4005,-1.4039,-1.4041,-1.4065,-1.4069,-1.4078,-1.4085,-1.4088,-1.4106,-1.4106,-1.4107,-1.4107,0,0,0,0,0,0,0,-1.3882,-1.3887,-1.3935,-1.3945,-1.395,-1.3965,-1.3972,-1.3979,-1.4027,-1.4008,-1.4013,-1.4019,-1.4068,-1.4076,-1.4079,-1.4089,-1.4106,-1.4107,-1.4107,-1.4108,-1.4082,-1.4081,0,0,0,0,0,0,-1.3873,-1.3884,-1.3933,-1.3936,-1.3921,-1.3965,-1.3973,-1.3982,-1.4027,-1.4035,-1.4018,-1.4022,-1.4074,-1.4078,-1.4082,-1.4061,-1.4107,-1.4108,-1.4109,-1.4084,-1.4082,-1.408,0,0,0,0,0,0,-1.3871,-1.3877,-1.393,-1.3912,-1.392,-1.3965,-1.3974,-1.3983,-1.3991,-1.4035,-1.4043,-1.4019,-1.4075,-1.408,-1.4082,-1.4064,-1.4109,-1.411,-1.4085,-1.4083,-1.4081,-1.4019,0,0,0,0,0,0,-1.3869,-1.3876,-1.3869,-1.3911,-1.392,-1.3929,-1.3973,-1.3983,-1.3993,-1.3999,-1.4037,-1.4045,-1.4076,-1.408,-1.4083,-1.4066,-1.4111,-1.4087,-1.4084,-1.4082,-1.4023,-1.4015,-1.4008,0,0,0,0,0,-1.3867,-1.3849,-1.3869,-1.3874,-1.3913,-1.3928,-1.3933,-1.3971,-1.3992,-1.3985,-1.4013,-1.4044,-1.4066,-1.4079,-1.4083,-1.4067,-1.4088,-1.4085,-1.4082,-1.4026,-1.4017,-1.4009,0,0,0,0,0,0,-1.3804,-1.3856,-1.3878,-1.3874,-1.3896,-1.3939,-1.3932,-1.396,-1.3976,-1.3981,-1.4026,-1.4034,-1.403,-1.4049,-1.4063,-1.405,-1.4081,-1.4079,-1.4037,-1.4029,-1.4021,-1.4016,-1.4112,0,0,0,0,0,-1.379,-1.3798,-1.3843,-1.3835,-1.3845,-1.3886,-1.3894,-1.3921,-1.3946,-1.3955,-1.3983,-1.4006,-1.4018,-1.4024,-1.4038,-1.4026,-1.4035,-1.4017,-1.401,-1.4004,-1.4,-1.3994,-1.3986,-1.407,-1.407,-1.407,0,0,-1.376,-1.379,-1.3792,-1.3823,-1.3843,-1.385,-1.3894,-1.3899,-1.3904,-1.3956,-1.3959,-1.398,-1.4008,-1.4002,-1.4001,-1.4018,-1.3979,-1.4,-1.3994,-1.3995,-1.399,-1.3982,-1.3975,-1.4068,-1.4068,-1.4069,0,0,-1.371,-1.3733,-1.3728,-1.3748,-1.3779,-1.3806,-1.3805,-1.3844,-1.386,-1.3864,-1.3902,-1.3909,-1.3929,-1.3946,-1.3958,-1.3913,-1.3941,-1.3916,-1.3878,-1.3871,-1.3865,-1.3859,-1.3841,-1.3835,-1.3914,-1.3913,-1.3913,0,-1.3669,-1.3681,-1.3722,-1.3725,-1.3736,-1.3784,-1.3779,-1.3796,-1.3829,-1.3835,-1.3854,-1.388,-1.3902,-1.39,-1.3889,-1.3898,-1.3897,-1.3912,-1.3863,-1.3857,-1.3853,-1.3836,-1.383,-1.391,-1.391,-1.3911,-1.3911,0,-1.3628,-1.3636,-1.3628,-1.3659,-1.367,-1.3669,-1.3709,-1.3715,-1.374,-1.3766,-1.3768,-1.3797,-1.3816,-1.3818,-1.3843,-1.382,-1.3829,-1.3854,-1.3887,-1.3841,-1.3826,-1.382,-1.3905,-1.3906,-1.3907,-1.3908,0,0,-1.3539,-1.3593,-1.3589,-1.3603,-1.364,-1.3646,-1.3647,-1.3666,-1.3669,-1.3691,-1.3691,-1.3707,-1.373,-1.3744,-1.3771,-1.3766,-1.3726,-1.3792,-1.3793,-1.3777,-1.37,-1.3679,-1.3671,-1.3746,-1.3745,-1.3744,-1.3697,0,-1.3493,-1.3497,-1.3534,-1.3527,-1.3533,-1.3579,-1.3579,-1.3601,-1.3625,-1.3633,-1.3659,-1.3669,-1.37,-1.3708,-1.3705,-1.3732,-1.3711,-1.3736,-1.3745,-1.3745,-1.3735,-1.3664,-1.3642,-1.3597,-1.3692,-1.3691,-1.369,0,-1.3441,-1.3458,-1.3452,-1.3488,-1.3492,-1.3492,-1.3512,-1.352,-1.3545,-1.3563,-1.3577,-1.3608,-1.361,-1.3642,-1.3644,-1.366,-1.3666,-1.368,-1.3679,-1.368,-1.3713,-1.3661,-1.3583,-1.3575,-1.3682,-1.3683,-1.3683,0,-1.3374,-1.3397,-1.3395,-1.3406,-1.3449,-1.3447,-1.3464,-1.3492,-1.35,-1.3518,-1.3524,-1.3541,-1.355,-1.3562,-1.3597,-1.3617,-1.3595,-1.3629,-1.3608,-1.3607,-1.36,-1.3599,-1.352,-1.3606,-1.3607,-1.3607,-1.3607,0,-1.3318,-1.3312,-1.3366,-1.3364,-1.3358,-1.3401,-1.3393,-1.3415,-1.3439,-1.3442,-1.3483,-1.3485,-1.3531,-1.3538,-1.3565,-1.3562,-1.3566,-1.3579,-1.3586,-1.3575,-1.3573,-1.3578,-1.3582,-1.3605,-1.3605,-1.3606,-1.3606,0,-1.3242,-1.3278,-1.3279,-1.3319,-1.3329,-1.3323,-1.3357,-1.3357,-1.3383,-1.3387,-1.339,-1.343,-1.3441,-1.3477,-1.3496,-1.3514,-1.3502,-1.3517,-1.3493,-1.3497,-1.3473,-1.3474,-1.3393,-1.3383,-1.3477,-1.3476,-1.3475,0,-1.3203,-1.3199,-1.3239,-1.3244,-1.326,-1.3268,-1.3277,-1.3318,-1.3326,-1.3355,-1.3351,-1.3364,-1.3377,-1.3391,-1.3422,-1.3437,-1.3451,-1.3422,-1.3453,-1.3441,-1.3448,-1.3447,-1.3446,-1.3414,-1.3413,-1.3412,-1.3411,0,-1.313,-1.3147,-1.3159,-1.3177,-1.3187,-1.3203,-1.3221,-1.3223,-1.3269,-1.3275,-1.3286,-1.3296,-1.3316,-1.3328,-1.3347,-1.3365,-1.3395,-1.3401,-1.3396,-1.3383,-1.3369,-1.3375,-1.3472,-1.3402,-1.3403,-1.3404,-1.3404,-1.3404,-1.307,-1.3068,-1.3095,-1.3107,-1.3125,-1.3141,-1.3142,-1.3169,-1.3179,-1.3198,-1.3222,-1.3229,-1.3254,-1.3283,-1.3299,-1.3305,-1.3321,-1.3315,-1.3313,-1.3311,-1.3304,-1.337,-1.3309,-1.3309,-1.3309,-1.3309,-1.331,0,-1.2997,-1.3017,-1.3027,-1.3051,-1.306,-1.3088,-1.3109,-1.3114,-1.3121,-1.3142,-1.3154,-1.3166,-1.3178,-1.3209,-1.3224,-1.3223,-1.3237,-1.3225,-1.3225,-1.3228,-1.3289,-1.3291,-1.3213,-1.3213,-1.3214,-1.3214,-1.3214,-1.3214,-1.296,-1.2958,-1.2979,-1.2985,-1.3005,-1.3013,-1.3023,-1.3037,-1.3054,-1.3065,-1.3076,-1.3096,-1.3121,-1.3138,-1.315,-1.3159,-1.3162,-1.3145,-1.3158,-1.3215,-1.3224,-1.3233,-1.3234,-1.3146,-1.3146,-1.3096,-1.3096,-1.3095]}]]